[[{"header":{"parameterUnit":"m.s-1","parameterCategory":1,"la1":30.2991,"la2":30.254,"lo1":-89.0895,"lo2":-89.0444,"dy":0.0017,"dx":0.0017,"nx":28,"ny":28,"refTime":"2024-05-18T03:00:00:Z","depth":0,"parameterNumber":2,"parameterNumberName":"U-component_of_WINDS"},"data":[0,0,0,0,0,0,0,0,0,0,0,0,0,0,0,0,0,0,0,0,0,0,0,0,0,0,0,0,0,0,0,0,0,0,0,0,0,0,0,0,0,0,0,0,0,0,0,0,0,0,0,0,0,0,0,0,0,0,1.7386,1.7385,0,1.7293,1.7292,1.7291,1.7232,1.7232,1.7232,1.7231,1.7133,1.7131,1.7128,0,0,0,0,0,0,0,0,0,0,0,0,0,1.751,1.7508,1.7386,1.7385,1.7384,1.7293,1.7292,1.7291,1.7232,1.7232,1.7232,1.7231,1.7134,1.7131,1.7128,0,0,0,0,0,0,0,0,0,0,0,0,0,1.7441,1.7507,1.7386,1.7344,1.7339,1.7293,1.7292,1.729,1.7233,1.7232,1.7232,1.7231,1.7135,1.7131,1.7128,1.7116,0,0,1.7117,1.7116,0,0,0,0,0,0,0,0,1.7445,1.7436,1.7351,1.7347,1.7341,1.7274,1.7299,1.7232,1.7233,1.7273,1.7231,1.7231,1.718,1.7173,1.7156,1.7111,1.7107,1.7117,1.7115,1.7113,1.7112,0,0,0,0,0,0,0,1.7449,1.744,1.7349,1.735,1.7344,1.7328,1.7318,1.7286,1.723,1.7269,1.7265,1.7255,1.7177,1.716,1.7154,1.7106,1.7117,1.7114,1.7112,1.711,1.7044,1.7045,0,0,0,0,0,0,1.7461,1.7444,1.7352,1.7346,1.7393,1.7327,1.7315,1.7296,1.723,1.722,1.7255,1.7253,1.7166,1.7158,1.715,1.713,1.7113,1.711,1.7108,1.7044,1.7044,1.7045,0,0,0,0,0,0,1.7464,1.7454,1.7356,1.7394,1.738,1.7325,1.7304,1.7294,1.7277,1.722,1.7209,1.7248,1.7165,1.7155,1.7125,1.7126,1.7108,1.7105,1.7044,1.7044,1.7045,1.7092,0,0,0,0,0,0,1.7468,1.7455,1.7451,1.7394,1.7379,1.7333,1.7304,1.7293,1.7271,1.7267,1.721,1.72,1.7164,1.713,1.7121,1.7121,1.7103,1.7043,1.7044,1.7044,1.709,1.7094,1.7097,0,0,0,0,0,1.7473,1.7467,1.7451,1.744,1.7372,1.7334,1.7324,1.7284,1.7272,1.7266,1.723,1.7202,1.7128,1.7128,1.7117,1.7116,1.7043,1.7044,1.7044,1.7088,1.7093,1.7097,0,0,0,0,0,0,1.7524,1.7459,1.744,1.7417,1.7381,1.7324,1.7316,1.729,1.7257,1.7254,1.7204,1.7191,1.7166,1.7138,1.7139,1.71,1.7082,1.7081,1.7119,1.7123,1.7127,1.7133,1.71,0,0,0,0,0,1.7534,1.7509,1.7453,1.7437,1.7421,1.7372,1.7353,1.7325,1.7286,1.727,1.7231,1.7193,1.7161,1.7141,1.7108,1.7086,1.7072,1.708,1.7083,1.7087,1.7086,1.707,1.7073,1.7047,1.7047,1.7047,0,0,1.7551,1.7512,1.75,1.7447,1.7416,1.739,1.7359,1.7333,1.7313,1.7266,1.7234,1.7205,1.7159,1.7133,1.7119,1.7108,1.709,1.7088,1.7091,1.7088,1.7071,1.7074,1.7076,1.7048,1.7048,1.7048,0,0,1.757,1.7539,1.7522,1.7492,1.7446,1.7413,1.7409,1.7356,1.7334,1.7303,1.7266,1.7241,1.7187,1.7156,1.7133,1.7139,1.7112,1.713,1.7149,1.7134,1.7136,1.7138,1.7139,1.714,1.713,1.713,1.713,0,1.7597,1.7557,1.7516,1.7492,1.7469,1.7427,1.7408,1.7381,1.7326,1.7311,1.73,1.7231,1.7197,1.7162,1.7164,1.7147,1.714,1.7136,1.714,1.7141,1.7141,1.7142,1.7142,1.7132,1.7132,1.7132,1.7131,0,1.7592,1.7566,1.7557,1.7507,1.7483,1.7462,1.7416,1.7397,1.7371,1.7339,1.7307,1.7265,1.7223,1.7213,1.7187,1.7173,1.7168,1.715,1.713,1.7147,1.7146,1.7146,1.7135,1.7135,1.7134,1.7133,0,0,1.7639,1.7567,1.7564,1.754,1.7486,1.7464,1.7441,1.74,1.7384,1.7348,1.7326,1.7282,1.7264,1.7238,1.7208,1.7196,1.7202,1.7178,1.7176,1.7182,1.7182,1.7195,1.7196,1.7184,1.7184,1.7184,1.7185,0,1.7649,1.7606,1.7568,1.7538,1.7512,1.7471,1.745,1.7414,1.7384,1.7356,1.7323,1.7291,1.7271,1.7255,1.7241,1.7204,1.7201,1.7204,1.7161,1.716,1.7172,1.7196,1.721,1.7213,1.7185,1.7185,1.7185,0,1.7653,1.762,1.7588,1.7536,1.7523,1.7506,1.7465,1.744,1.7398,1.7377,1.7348,1.7317,1.7289,1.7274,1.7234,1.7236,1.7217,1.7196,1.7195,1.7188,1.7172,1.7188,1.7214,1.7214,1.7184,1.7184,1.7184,0,1.7689,1.7635,1.7609,1.759,1.7529,1.7518,1.7492,1.745,1.7427,1.7392,1.7376,1.7338,1.7316,1.7286,1.7245,1.7238,1.7209,1.7191,1.7188,1.719,1.7183,1.7183,1.7204,1.7173,1.7173,1.7173,1.7173,0,1.7702,1.7683,1.7624,1.7608,1.7585,1.7542,1.752,1.7491,1.7453,1.7429,1.7392,1.737,1.7318,1.7289,1.7257,1.7227,1.7218,1.7199,1.719,1.7202,1.7204,1.7187,1.7185,1.7173,1.7173,1.7173,1.7173,0,1.7737,1.7697,1.7665,1.7611,1.7596,1.7582,1.7535,1.7517,1.7485,1.7455,1.7445,1.7395,1.7359,1.7316,1.7266,1.7244,1.7217,1.7205,1.7231,1.7226,1.7226,1.7226,1.7235,1.7233,1.7206,1.7206,1.7206,0,1.7747,1.7731,1.7676,1.7658,1.7633,1.7604,1.7582,1.7538,1.7516,1.7467,1.7454,1.7416,1.7383,1.7328,1.7286,1.7247,1.7233,1.7238,1.7226,1.7238,1.723,1.7231,1.7229,1.7241,1.7242,1.7242,1.7242,0,1.7768,1.7749,1.7718,1.7681,1.7655,1.7623,1.759,1.7577,1.7526,1.7503,1.7466,1.7441,1.739,1.7352,1.7308,1.728,1.7252,1.7247,1.7244,1.7254,1.727,1.726,1.7238,1.7246,1.7246,1.7246,1.7245,1.7245,1.7789,1.7773,1.7732,1.7699,1.7669,1.7639,1.7619,1.7585,1.7554,1.751,1.7486,1.745,1.7408,1.7346,1.7319,1.7289,1.7279,1.7275,1.7274,1.7273,1.7276,1.7276,1.7281,1.7281,1.7281,1.7281,1.728,0,1.7807,1.7779,1.7749,1.7703,1.7677,1.7655,1.7617,1.7596,1.7565,1.7528,1.7497,1.7455,1.7418,1.7373,1.7333,1.7317,1.7303,1.7308,1.7308,1.7301,1.7288,1.7294,1.732,1.732,1.732,1.732,1.732,1.732,1.7813,1.7785,1.7761,1.7718,1.7689,1.7654,1.7634,1.7605,1.7575,1.753,1.75,1.7471,1.7431,1.7387,1.7352,1.734,1.7326,1.7334,1.7318,1.7306,1.7302,1.7299,1.7304,1.7332,1.7332,1.7333,1.7333,1.7333]},{"header":{"parameterUnit":"m.s-1","parameterCategory":1,"la1":30.2991,"la2":30.254,"lo1":-89.0895,"lo2":-89.0444,"dy":0.0017,"dx":0.0017,"nx":28,"ny":28,"refTime":"2024-05-18T03:00:00:Z","depth":0,"parameterNumber":3,"parameterNumberName":"V-component_of_WINDS"},"data":[0,0,0,0,0,0,0,0,0,0,0,0,0,0,0,0,0,0,0,0,0,0,0,0,0,0,0,0,0,0,0,0,0,0,0,0,0,0,0,0,0,0,0,0,0,0,0,0,0,0,0,0,0,0,0,0,0,0,1.0689,1.069,0,1.0786,1.0787,1.0788,1.0863,1.0863,1.0864,1.0865,1.0959,1.0961,1.0963,0,0,0,0,0,0,0,0,0,0,0,0,0,1.0564,1.0566,1.0688,1.069,1.0691,1.0785,1.0787,1.0788,1.0863,1.0863,1.0864,1.0865,1.0959,1.0961,1.0963,0,0,0,0,0,0,0,0,0,0,0,0,0,1.0635,1.0566,1.0688,1.074,1.0745,1.0785,1.0787,1.0788,1.0862,1.0864,1.0865,1.0866,1.0958,1.0961,1.0964,1.0959,0,0,1.0972,1.0973,0,0,0,0,0,0,0,0,1.0631,1.0639,1.0731,1.0736,1.0743,1.0813,1.0778,1.0845,1.0862,1.0818,1.0865,1.0866,1.091,1.0916,1.0932,1.0963,1.0967,1.0972,1.0974,1.0975,1.0976,0,0,0,0,0,0,0,1.0626,1.0636,1.0727,1.0732,1.0739,1.0757,1.0768,1.0791,1.0856,1.0822,1.0827,1.0838,1.0913,1.0929,1.0935,1.0969,1.0972,1.0975,1.0976,1.0977,1.1001,1.1,0,0,0,0,0,0,1.0614,1.0631,1.0724,1.073,1.0688,1.0758,1.0771,1.0789,1.0856,1.0868,1.0837,1.0841,1.0924,1.0932,1.0938,1.0937,1.0975,1.0978,1.0979,1.1002,1.1001,1.0999,0,0,0,0,0,0,1.0611,1.0621,1.072,1.0682,1.0696,1.0759,1.0779,1.0791,1.0807,1.0868,1.088,1.0842,1.0925,1.0935,1.0954,1.0942,1.0979,1.0981,1.1003,1.1001,1.1,1.0935,0,0,0,0,0,0,1.0607,1.062,1.0619,1.0682,1.0698,1.0734,1.0779,1.0792,1.0812,1.0819,1.0876,1.0886,1.0927,1.0949,1.0956,1.0946,1.0984,1.1004,1.1002,1.1,1.0938,1.0931,1.0925,0,0,0,0,0,1.0602,1.0596,1.0619,1.063,1.0699,1.0733,1.0742,1.0791,1.0811,1.0811,1.085,1.0884,1.0942,1.095,1.0959,1.0949,1.1005,1.1003,1.1001,1.0941,1.0932,1.0925,0,0,0,0,0,0,1.0529,1.0605,1.0631,1.0646,1.0683,1.0746,1.0747,1.078,1.0811,1.0815,1.0873,1.0885,1.0898,1.0926,1.0934,1.0949,1.0978,1.0977,1.093,1.0922,1.0915,1.0908,1.0986,0,0,0,0,0,1.0515,1.0538,1.0603,1.0609,1.0626,1.0683,1.07,1.0734,1.0774,1.079,1.083,1.0867,1.0893,1.0909,1.0937,1.0943,1.0956,1.0941,1.0934,1.0928,1.0927,1.0932,1.0925,1.0992,1.0992,1.0992,0,0,1.0485,1.0529,1.054,1.0595,1.0628,1.0649,1.0696,1.0716,1.0732,1.0793,1.0813,1.0844,1.0889,1.0901,1.0908,1.0925,1.0912,1.0925,1.092,1.0922,1.0929,1.0922,1.0917,1.099,1.099,1.0991,0,0,1.0442,1.0478,1.0487,1.052,1.0569,1.0607,1.0609,1.0668,1.0692,1.0714,1.076,1.0779,1.0823,1.0853,1.0874,1.0843,1.0875,1.085,1.0815,1.082,1.0814,1.081,1.0798,1.0794,1.0849,1.0848,1.0848,0,1.0398,1.0433,1.0487,1.0506,1.0528,1.0586,1.0595,1.0623,1.0678,1.0692,1.071,1.0767,1.0801,1.0821,1.0814,1.0829,1.0832,1.0843,1.0811,1.0807,1.0804,1.0793,1.0789,1.0845,1.0845,1.0846,1.0846,0,1.0377,1.04,1.0402,1.0456,1.0479,1.0492,1.0547,1.0563,1.0595,1.0631,1.0653,1.0696,1.0733,1.0741,1.0772,1.0765,1.0774,1.0801,1.0831,1.0793,1.0784,1.0781,1.084,1.0841,1.0842,1.0843,0,0,1.0289,1.0374,1.0373,1.0398,1.0458,1.0477,1.0492,1.0531,1.0543,1.058,1.0593,1.063,1.0656,1.0679,1.0715,1.0718,1.0691,1.0745,1.0747,1.0733,1.0685,1.0664,1.0659,1.0713,1.0713,1.0712,1.0681,0,1.0254,1.0288,1.0337,1.0353,1.0375,1.0431,1.0444,1.0481,1.0515,1.0538,1.0576,1.0601,1.0633,1.0647,1.0654,1.0692,1.0682,1.0696,1.0725,1.0726,1.0712,1.0654,1.0632,1.0601,1.0678,1.0678,1.0677,0,1.0218,1.0254,1.0272,1.0331,1.0342,1.0353,1.0392,1.0414,1.0457,1.0482,1.0509,1.0547,1.0566,1.0594,1.062,1.0628,1.0644,1.0664,1.0664,1.0668,1.0698,1.0656,1.0592,1.0587,1.0673,1.0673,1.0673,0,1.0152,1.0204,1.0222,1.0242,1.031,1.0317,1.0345,1.039,1.041,1.0444,1.0457,1.0492,1.0511,1.0536,1.0583,1.06,1.0603,1.0636,1.0623,1.0622,1.0621,1.062,1.0558,1.0632,1.0632,1.0632,1.0632,0,1.0108,1.0117,1.0193,1.0204,1.0215,1.0272,1.0281,1.0315,1.0354,1.0371,1.0421,1.0436,1.0498,1.0519,1.0556,1.0571,1.058,1.0599,1.0609,1.0594,1.0592,1.0604,1.0607,1.0631,1.0631,1.0631,1.0631,0,1.0035,1.0086,1.0109,1.0173,1.0189,1.0195,1.0249,1.0261,1.0298,1.032,1.0328,1.0386,1.0415,1.0465,1.0507,1.0531,1.0539,1.0556,1.0525,1.0531,1.0515,1.0516,1.0458,1.0453,1.053,1.0529,1.0529,0,1.0003,1.0011,1.0076,1.0092,1.012,1.0145,1.0166,1.0222,1.0241,1.0292,1.0297,1.033,1.0359,1.0402,1.0447,1.048,1.0498,1.0475,1.0503,1.0488,1.0496,1.0495,1.0496,1.0468,1.0467,1.0466,1.0466,0,0.994,0.9966,0.9995,1.0033,1.0058,1.009,1.0125,1.0135,1.0198,1.0217,1.0248,1.0271,1.0315,1.0347,1.0386,1.0414,1.045,1.0457,1.0456,1.0441,1.0422,1.0432,1.0507,1.0458,1.0459,1.0459,1.046,1.046,0.9887,0.9897,0.9945,0.9976,1.0008,1.004,1.0054,1.0094,1.0121,1.0163,1.0194,1.0222,1.0265,1.0322,1.0348,1.037,1.0387,1.0385,1.0384,1.0383,1.0377,1.042,1.0378,1.0378,1.0378,1.0378,1.0379,0,0.9827,0.986,0.9888,0.9936,0.996,0.9994,1.0034,1.0052,1.0077,1.0115,1.0143,1.0178,1.0209,1.0257,1.0292,1.03,1.0318,1.0308,1.0307,1.0313,1.0361,1.0358,1.0293,1.0293,1.0293,1.0293,1.0293,1.0293,0.9798,0.9817,0.9848,0.9884,0.9917,0.9946,0.9966,0.9995,1.0026,1.0064,1.009,1.0122,1.0164,1.0203,1.0232,1.0246,1.0256,1.024,1.0258,1.0302,1.031,1.0317,1.0315,1.0242,1.0242,1.0209,1.0209,1.0209]}]]